IRIDIUM 33 DEB, 36493

Orbit data source: Space-Track

IRIDIUM 33 DEB, 36493 is space debris in LEO originally from a launch on Sun, 14 Sep 1997 UTC launched from the Tyuratam Missile And Space Complex (TTMTR). The debris from Iridium 33, an American commercial communications satellite, has been tracked extensively since its accidental collision with the defunct Russian satellite Cosmos 2251 in 2009. This event, occurring at high speed in low Earth orbit (LEO), generated thousands of pieces of space debris, significantly increasing the risk of further collisions. The Iridium 33 debris cloud has impacted space traffic management and orbital debris mitigation strategies, making it a subject of ongoing study in space situational awareness.

Loading next visibility...
Identifier
36493, 1997-051WK
Orbit
LEO
Country
Flag of USUS
Related business
Manufacturer
Unknown
Mission
Spacecraft
Bus & Motor
Unknown
Mass
Unknown
Launch date (UTC)
1997-09-14 (28 years ago)
Launch vehicle
Unknown
Launch site
Tyuratam Missile And Space Complex (TTMTR)
Object type
Payload
Rocket body
Debris
Shape & HBR
Unknown shape, 0.1 m
Radar Cross Section
Small (<0.1 m²)

Expand to show TLE details & history
Last TLE update: 4 days ago

TLE from 4 days ago
0 IRIDIUM 33 DEB
1 36493U 97051WK  26059.06648870  .00007173  00000-0  12878-2 0  9994
2 36493  86.3608 337.3012 0013108  82.3547 277.9154 14.66545736756515
Epoch: 2026-02-28T01:35Z
TLE epoch observation values (Epoch: 2026-02-28T01:35:44.623Z)
Latitude
-0.00012°
Longitude
155.47132°
Altitude
673.952 km
Speed
7.52 km/s
True Right ascension
22h 29m 12s
True Declination
0° 00' 00"
Sunlit
Object was in daylight at epoch
Visualization orbit readout
Latitude
Unknown
Longitude
Unknown
Altitude
Unknown
Speed
Unknown
Apparent Right ascension
Unknown
Apparent Declination
Unknown
Sunlit
N/A
Visualization observer readout
Local Sidereal Time
19:04:34
Azimuth
Unknown
Elevation
Unknown
Doppler factor
Unknown
Orbital elements
Apogee altitude
678.274 km
Perigee altitude
659.799 km
Semi-major axis
7,047.174 km
Eccentricity
0.00131
Inclination
86.3608°
RAAN
337.3012°
Arg. of periapsis
82.3547°
True anomaly
277.76659°
Mean anomaly
277.9154°
Eccentric anomaly
277.841°
Mean motion
3.66877 °/min
Orbital period
98.13 mins
BSTAR
0.0012878
Loading maneuver chart data...
Computing Atmospheric mass density...
Loading historical data...
Loading historical data...
Loading historical data...
Loading historical data...
Loading historical data...
Loading historical data...
Loading historical data...

Documentation

Showing up to 5 results
|